Regional Weather Roundup
Issued by NWS Wakefield, VA

Home | Current Version | Previous Version | Text Only | Print | Product List | Glossary Off
Versions: 1 2 3 4 5 6 7 8 9 10 11 12 13 14 15 16 17 18 19 20 21 22 23 24 25 26 27

000
ASUS41 KAKQ 102015
RWRAKQ

REGIONAL WEATHER ROUNDUP
NATIONAL WEATHER SERVICE WAKEFIELD VA
300 PM EST SAT DEC 10 2016

Note: "fair" indicates few or no clouds below 12,000 feet with no
significant weather and/or obstructions to visibility. * = Denotes
station may not report precipitation (e.g., rain,snow,etc.),
thunder or fog.

VAZ042-051-052>054-056-102100-
NORTHERN VIRGINIA

CITY           SKY/WX    TMP DP  RH WIND       PRES   REMARKS
WASH NATIONAL  MOSUNNY   37  13  37 NW12      30.45S
DULLES         MOSUNNY   34  11  38 NW14      30.44S WCI  25
FORT BELVOIR   NOT AVBL
QUANTICO       SUNNY     39  13  34 NW10      30.46S
FREDERICKSBRG* SUNNY     38  15  39 W6        30.44S
STAFFORD*      SUNNY     37  14  39 NW12      30.48S
WARRENTON      SUNNY     38   3  23 W5        30.43S
CULPEPER*      SUNNY     38  13  36 CALM      30.46R
MANASSAS*      NOT AVBL
LEESBURG*      SUNNY     34  18  51 NW15G24   30.45S WCI  24
WINCHESTER     SUNNY     32  10  40 NW16      30.43S WCI  21
FRONT ROYAL*   FAIR      32  12  43 NW6       30.43R
LURAY*         FAIR      34  14  44 W5        30.42R
$$

VAZ048-049-060>072-079>083-102100-
CENTRAL AND SOUTH CENTRAL VIRGINIA

CITY           SKY/WX    TMP DP  RH WIND       PRES   REMARKS
RICHMOND       MOSUNNY   38  13  35 VRB7      30.44F
CHESTERFIELD*  FAIR      39   7  26 NW10      30.45F
PETERSBURG*    SUNNY     39  11  31 SW6       30.45F
HANOVER        SUNNY     38  13  35 W13       30.46S
TAPPAHANNOCK*  SUNNY     39   8  27 W7        30.44S
QUINTON*       FAIR      38  14  36 NW8       30.44S
CHARLOTTSVILLE SUNNY     38  12  34 VRB3      30.42S
GORDONSVILLE*  FAIR      37  11  35 W6        30.43R
ORANGE*          N/A     37  12  35 SW8       30.46R
LOUISA*        SUNNY     41  16  36 NW9       30.42R
BUMPASS*       FAIR      38  12  34 CALM      30.43S
FARMVILLE*     SUNNY     40  11  31 SW6       30.44R
CREWE*         FAIR      38  13  36 NW8       30.43F
FORT PICKETT*  FAIR      38   4  24 NW8       30.44R
CHASE CITY*    FAIR      38  10  32 NW5       30.44F
CLARKSVILLE*   FAIR      37  14  38 W6        30.44F
SOUTH HILL*    SUNNY     37  15  40 W5        30.49F
LAWRENCEVILLE* FAIR      39  12  33 NW3       30.43F
EMPORIA*       SUNNY     39  14  35 W5        30.46F
$$

VAZ088>098-102100-
SOUTHEAST VIRGINIA

CITY           SKY/WX    TMP DP  RH WIND       PRES   REMARKS
NORFOLK        SUNNY     40  16  37 VRB5      30.45S
VIRGINIA BEACH MOSUNNY   40  16  37 W9        30.44S
NORFOLK NAVAL  MOSUNNY   40  16  37 W7        30.46S
WEST POINT*    SUNNY     39  11  31 W9        30.46S
SALUDA*        FAIR      38  15  39 NW6       30.44S
NEWPORT NEWS   SUNNY     39  16  39 W7        30.45S
LANGLEY AFB    SUNNY     39  17  40 W12       30.44S
FORT EUSTIS    SUNNY     42  16  34 NW8       30.42F
WILLIAMSBURG*  SUNNY     41  18  38 NW5       30.45S
HR EXEC AP*    FAIR      39  16  38 W8        30.43F
FRANKLIN*      SUNNY     39  14  36 W7        30.46F
US460-WAKEFLD  SUNNY     39  14  36 VRB5      30.44F
$$

VAZ020-022-025-037-045-102100-
WEST CENTRAL AND SOUTHWEST VIRGINIA

CITY           SKY/WX    TMP DP  RH WIND       PRES   REMARKS
STAUNTON*      SUNNY     33  11  41 NE3       30.41R
WAYNESBORO*    FAIR      33   8  35 W7        30.38S
HOT SPRINGS VA SUNNY     25   3  39 W13       30.24S WCI  13
LYNCHBURG      SUNNY     37  11  34 VRB6      30.43S
DANVILLE       SUNNY     40  13  33 W12       30.45F
SOUTH BOSTON*  FAIR      39  10  30 NW8       30.46S
MARTINSVILLE   SUNNY     40  12  31 SE3       30.45S
ROANOKE        SUNNY     40  10  29 N9        30.43S
BLACKSBURG     SUNNY     34  10  37 W7        30.40S
DUBLIN*        SUNNY     36   6  29 NW12      30.40R
MARION*        SUNNY     33  13  44 SW10G17   30.41R WCI  24
HILLSVILLE*    SUNNY     32   6  33 NW3       30.35R
RICHLANDS*     FAIR      30  14  51 W3        30.39S
WISE*          SUNNY     34  12  40 CALM      30.38F
ABINGDON*      SUNNY     35  11  36 W3        30.43R
$$

MDZ021>025-VAZ099-100-102100-
SOUTHERN MARYLAND AND THE DELMARVA PENINSULA

CITY           SKY/WX    TMP DP  RH WIND       PRES   REMARKS
PATUXENT RIVER MOSUNNY   38  15  39 W13G20    30.43S
BAY BRIDGE APT SUNNY     36  14  41 NW15G22   30.43S
LEONARDTOWN    SUNNY     37  12  35 W9        30.45R
DOVER          CLOUDY    36  18  48 W10       30.39S
GEORGETOWN     PTSUNNY   38  16  40 W9        30.41S
EASTON         NOT AVBL
CAMBRIDGE      SUNNY     36  14  41 W10       30.42S
SALISBURY      MOSUNNY   38  16  40 W9        30.41S
OCEAN CITY     SUNNY     38  15  39 NW13G20   30.41S
WALLOPS ISLAND SUNNY     38  17  42 NW12      30.43S
ACCOMACK*      SUNNY     37  19  47 NW9       30.43F
$$

NCZ012>017-030>032-102100-
NORTH CENTRAL AND EASTERN NORTH CAROLINA

CITY           SKY/WX    TMP DP  RH WIND       PRES   REMARKS
ROANOKE RAPIDS FAIR      41  18  38 W7        30.45F
RALEIGH        MOSUNNY   44  10  25 W7        30.46F
ELIZABETH CITY SUNNY     41  17  38 W10       30.46S
AHOSKIE*       SUNNY     39  15  38 CALM      30.47S
EDENTON*       SUNNY     42  19  38 W3        30.46F
CURRITUCK*     SUNNY     41  18  39 W7        30.46R
KILL DEVIL HLS SUNNY     40  24  54 W7        30.45R
MANTEO         SUNNY     39  20  46 N7        30.47R
CAPE HATTERAS  SUNNY     43  22  43 W6        30.46S
TARBORO*       NOT AVBL
GOLDSBORO      SUNNY     43  13  29 W8        30.45F
WASHINGTON     SUNNY     42  15  34 W8        30.47F
GREENVILLE     SUNNY     41  18  38 W3        30.47S
NEW BERN       SUNNY     43  18  36 NW8       30.47F
WILMINGTON     SUNNY     45  17  32 N10       30.48F
$$

VAZ048-102100-
ELSEWHERE

CITY           SKY/WX    TMP DP  RH WIND       PRES   REMARKS
HARRISBURG PA  PTSUNNY   34  19  54 W17       30.40R WCI  23
BALTIMORE      MOSUNNY   35  14  42 W17G23    30.42S WCI  25
ANNAPOLIS      SUNNY     38  15  39 W10       30.43S
ANDREWS AFB    SUNNY     35  12  38 NW14      30.42S
PHILADELPHIA   MOSUNNY   37  12  35 NW16      30.39R
HENDERSON NC   SUNNY     36  10  32 NW7       30.44F
GREENSBORO     SUNNY     41   9  26 NW7       30.42F
ROCKY MOUNT    SUNNY     41  15  35 VRB6      30.46F
$$

VAZ100-102100-
MARINE

STATION/POSITION TIME  TEMP    WIND        PRES    WAVE   SWELL
                       AIR SEA DIR/SP/G            HT/PER HT/PER
                 (UTC) (F)     (DEG/KT/KT) (MB)    (FT/S) (FT/S)
BRANDYWINE LGT   1948   36     300/ 16/ 19   N/A
CAPE MAY NJ      1948   37 41  290/  9/ 12 1029.0R
LEWES DE         1948   36 43  300/ 12/ 15 1029.4S
OCEAN-CITY-INLET 1942   38 47  310/  9/ 11 1029.8F
WACHAPREAGUE VA  1948   38 43  250/  4/  8 1030.4F
THOMAS POINT MD  2000   35 45  290/ 13/ 15   N/A
GOOSES REEF MD   2000   38 47  310/ 14/ 17 1031.2    1/ 2
COVE POINT MD    1948   36     320/ 12/ 17 1031.0R
SOLOMONS ISLAND  1942   38 48  290/  9/ 13   N/A
BISHOPS HEAD MD  1948   36 37  300/ 10/ 12 1030.5F
PINEY POINT MD   1948          340/ 14/ 17   N/A
POTOMAC MD       2000   37 48  320/ 12/ 16 1030.0    1/ 2
CAMBRIDGE MD     1948   36 42  290/ 11/ 17 1029.6S
LEWISETTA VA     1948   37 43  300/ 10/ 12 1030.4S
RAPPAHANNOCK LGT 1948          290/ 10/ 12 1031.1F
STINGRAY PT      2000   38     320/ 12/ 16 1031.1    1/ 2
YORK RVR RNG VA  1948   38     300/  9/ 12 1030.3F
YORKTOWN VA      1948   38 48  280/ 10/ 14 1030.4F
JAMESTOWN VA     2000   38 48  300/  8/ 12   N/A     0
DOMINION TERM VA 1948   38     310/  6/ 10 1030.9F
KIPTOPEKE VA     1942      48  300/ 10/ 14   N/A
CHES BAY BRIDGE  1948   37 49  250/ 10/ 12 1030.9F
CAPE HENRY VA    1948   38     280/ 10/ 15   N/A
WILLOUBY STN VA  1948   38     290/  7/ 10 1031.8F
S CRANEY ISL VA  1948   39     290/  5/  7 1030.9F
CAPE HENRY BUOY  1942      53                N/A     2/ 6
1ST LANDING BUOY 2000   39 49              1031.1    1/ 3
CAPE CHARLES BUO 1956      51                N/A     2/ 4
OFFSHORE WE BUOY 1951      54                N/A     3/ 6
64NM E OF VA BCH 1950   40 58  300/ 12/ 16 1030.2R   3/ 6   2/ 6
DUCK PIER NC     1948   40 51  270/ 11/ 13 1030.6R
44100 DUCK FRF   1935      55                N/A     3/ 6
OREGON INLET NC  1942   40 50  300/  7/ 11 1031.2S
HATTERAS NC      1948   40 52  320/  4/  7 1030.9F
DIAMOND SHLS NC  1950   43 77  330/ 12/ 16 1031.3R   4/10   3/10
CAPE LOOKOUT NC  2000   43     320/  5/  6 1031.2F
$$




USA.gov is the U.S. government's official web portal to all federal, state and local government web resources and services.